THOR ABLESTAR DEB, 3124

Orbit data source: Space-Track

THOR ABLESTAR DEB, 3124 is space debris in LEO originally from a launch on Thu, 29 Jun 1961 UTC launched from the Air Force Eastern Test Range (AFETR). Debris objects in space refer to the collection of defunct objects orbiting the Earth. Examples of debris include non-operational satellites, rocket bodies, and fragments generated from explosions, collisions, or faulty payload assembly.

Loading next visibility...
Identifier
3124, 1961-015HX
Orbit
LEO
Last TLE update
9 hours ago
Origin
Manufacturer
Unknown
Mission
Spacecraft
Bus & Motor
Unknown
Mass
Unknown
Launch date (UTC)
1961-06-29 (64 years ago)
Launch vehicle
Unknown
Launch site
Air Force Eastern Test Range (AFETR)
Object type
Payload
Rocket body
Debris
Shape & HBR
Unknown
Radar Cross Section
Small (<0.1 m²)

Expand to show TLE details & history

TLE from 9 hours ago
0 THOR ABLESTAR DEB
1 03124U 61015HX  25183.85672560  .00000823  00000-0  89526-3 0  9997
2 03124  66.9868   3.5960 0328332 322.3350  35.5121 13.56313212121746
Epoch: 2025-07-02T20:33Z
TLE epoch observation values (Epoch: 2025-07-02T20:33:41.091Z)
Latitude
0.00002°
Longitude
134.04298°
Altitude
855.474 km
Speed
7.522 km/s
True Right ascension
00h 14m 23s
True Declination
0° 00' 00"
Sunlit
Object was in daylight at epoch
Visualization orbit readout
Latitude
56.17569°
Longitude
-85.95996°
Altitude
1,274.465 km
Speed
7.118 km/s
Apparent Right ascension
07h 30m 46s
Apparent Declination
15° 42' 57"
Sunlit
Object is in daylight
Visualization observer readout
Local Sidereal Time
17:44:27
Azimuth
330.464° NNW
Elevation
-29.11°
Doppler factor
1
Orbital elements
Apogee altitude
1,291.326 km
Perigee altitude
803.71 km
Semi-major axis
7,425.655 km
Eccentricity
0.03283
Inclination
66.9868°
RAAN
3.596°
Arg. of periapsis
322.335°
True anomaly
Unknown
Mean anomaly
35.5121°
Eccentric anomaly
Unknown
Mean motion
3.39188 °/min
Orbital period
106.14 mins
BSTAR
0.00089526
Loading maneuver chart data...
Loading SW <> Apogee altitude chart data...

THOR ABLESTAR DEB Visibility forecast

Observer location: undefined°, undefined°

Span
Click to sort rows by Start time (UTC) header in descending order
Start Az.
Max El. time (UTC)
Max El. Az.
Max El.
End time (UTC)
End Az.
10 mins2025-07-03 12:35:51.316Z163.233° S2025-07-03 12:40:51.316Z102.263° ESE27.254°2025-07-03 12:45:51.316Z49.501° ENE
11 mins2025-07-03 14:24:51.316Z239.658° WSW2025-07-03 14:29:51.316Z315.732° NNW35.57°2025-07-03 14:35:51.316Z18.413° NNE
5 mins2025-07-03 20:05:51.316Z15.2° NNE2025-07-03 20:07:51.316Z31.528° NE13.357°2025-07-03 20:10:51.316Z54.817° ENE
13 mins2025-07-03 21:52:51.316Z344.854° N2025-07-03 21:58:51.316Z47.92° ENE35.97°2025-07-03 22:05:51.316Z122.691° SE
12 mins2025-07-03 23:42:51.316Z311.956° NW2025-07-03 23:48:51.316Z242.429° WSW33.937°2025-07-03 23:54:51.316Z186.654° SSW
|